N68VB KGSP-

Flight info

Callsign N68VB
Flight time N/A
Altitude 4500
Route VFR N
Aircraft SR2T/L-VGD/C

Departure

Time 2026-04-12 19:59
Airport Greenville-Spartanburg International Airport (KGSP)

Arrival

Time N/A
Airport -
Time Latitude Longitude Altitude Speed Heading
2026-04-12 19:52 34.90100 -82.21103 964 ft 0 kts 307°
2026-04-12 19:54 34.90105 -82.21110 964 ft 5 kts 316°
2026-04-12 19:54 34.90150 -82.21145 964 ft 1 kts 300°
2026-04-12 19:56 34.90164 -82.21170 963 ft 10 kts 315°
2026-04-12 19:56 34.90253 -82.21127 964 ft 19 kts 32°
2026-04-12 19:56 34.90374 -82.21035 963 ft 20 kts 32°
2026-04-12 19:56 34.90511 -82.20929 964 ft 27 kts 30°
2026-04-12 19:57 34.90658 -82.20817 965 ft 13 kts 34°
2026-04-12 19:57 34.90760 -82.20774 962 ft 17 kts 329°
2026-04-12 19:57 34.90798 -82.20836 963 ft 0 kts 304°
2026-04-12 19:58 34.90811 -82.20859 964 ft 7 kts 305°
2026-04-12 19:58 34.90837 -82.20939 964 ft 13 kts 213°
2026-04-12 19:58 34.90766 -82.20975 964 ft 11 kts 211°
2026-04-12 19:58 34.90490 -82.21183 982 ft 75 kts 210°
2026-04-12 19:59 34.89966 -82.21561 1122 ft 94 kts 209°
2026-04-12 19:59 34.89434 -82.21983 1478 ft 87 kts 213°
2026-04-12 19:59 34.88915 -82.22407 1731 ft 93 kts 211°
2026-04-12 19:59 34.88371 -82.22819 2071 ft 91 kts 206°
2026-04-12 20:00 34.87845 -82.23211 2180 ft 88 kts 209°
2026-04-12 20:00 34.87300 -82.23541 2290 ft 90 kts 182°
2026-04-12 20:00 34.86700 -82.23172 2291 ft 109 kts 141°
2026-04-12 20:00 34.86234 -82.22482 2389 ft 103 kts 131°
2026-04-12 20:01 34.85905 -82.21685 2454 ft 112 kts 108°
2026-04-12 20:01 34.85907 -82.20715 2457 ft 116 kts 91°
2026-04-12 20:01 34.86109 -82.19757 2587 ft 118 kts 79°
2026-04-12 20:01 34.86358 -82.18797 2578 ft 120 kts 79°
2026-04-12 20:02 34.86612 -82.17827 2540 ft 121 kts 80°
2026-04-12 20:02 34.86860 -82.16830 2508 ft 123 kts 80°
2026-04-12 20:02 34.87096 -82.15843 2620 ft 120 kts 79°
2026-04-12 20:02 34.87335 -82.14865 2627 ft 123 kts 81°
2026-04-12 20:03 34.87614 -82.13863 2669 ft 127 kts 77°
2026-04-12 20:03 34.87873 -82.12872 2823 ft 123 kts 78°
2026-04-12 20:03 34.88239 -82.11910 2922 ft 130 kts 55°
2026-04-12 20:03 34.88613 -82.10952 2988 ft 125 kts 75°
2026-04-12 20:04 34.88904 -82.09895 3026 ft 142 kts 78°
2026-04-12 20:04 34.89201 -82.08727 3286 ft 148 kts 81°
2026-04-12 20:04 34.89504 -82.07479 3457 ft 161 kts 78°
2026-04-12 20:04 34.89853 -82.06124 3411 ft 180 kts 77°
2026-04-12 20:05 34.90221 -82.04573 3074 ft 199 kts 79°
2026-04-12 20:05 34.90566 -82.03066 3123 ft 170 kts 78°
2026-04-12 20:05 34.91009 -82.01781 3167 ft 164 kts 66°
2026-04-12 20:05 34.91396 -82.00552 3163 ft 154 kts 78°
2026-04-12 20:06 34.91639 -81.99354 3350 ft 132 kts 83°
2026-04-12 20:06 34.91817 -81.98378 3654 ft 106 kts 83°
2026-04-12 20:06 34.91994 -81.97545 3750 ft 101 kts 83°
2026-04-12 20:06 34.92179 -81.96699 3763 ft 107 kts 83°
2026-04-12 20:07 34.92390 -81.95798 3755 ft 113 kts 79°
2026-04-12 20:07 34.92585 -81.94872 3751 ft 111 kts 83°
2026-04-12 20:07 34.92757 -81.93908 3903 ft 127 kts 84°
2026-04-12 20:07 34.92929 -81.92797 4139 ft 137 kts 85°
2026-04-12 20:08 34.93112 -81.91654 4528 ft 137 kts 84°
2026-04-12 20:08 34.93295 -81.90537 4949 ft 132 kts 84°
2026-04-12 20:08 34.93477 -81.89462 5394 ft 128 kts 84°
2026-04-12 20:08 34.93660 -81.88415 5837 ft 125 kts 84°
2026-04-12 20:09 34.93843 -81.87377 6261 ft 125 kts 84°
2026-04-12 20:09 34.94021 -81.86293 6537 ft 139 kts 85°
2026-04-12 20:09 34.94184 -81.85095 6738 ft 151 kts 90°
2026-04-12 20:09 34.94237 -81.83696 6577 ft 173 kts 93°
2026-04-12 20:10 34.94379 -81.82203 6554 ft 187 kts 76°
2026-04-12 20:10 34.94850 -81.80703 6557 ft 185 kts 91°
2026-04-12 20:10 34.94422 -81.79469 6966 ft 151 kts 149°
2026-04-12 20:10 34.93373 -81.79444 6694 ft 171 kts 194°
2026-04-12 20:11 34.92220 -81.79272 6915 ft 161 kts 162°
2026-04-12 20:11 34.91238 -81.78689 7166 ft 156 kts 157°
2026-04-12 20:11 34.90243 -81.78082 6739 ft 185 kts 163°